Regional Weather Roundup
Issued by NWS Upton, NY

Current Version | Previous Version | Graphics & Text | Print | Product List | Glossary Off
Versions: 1 2 3 4 5 6 7 8 9 10 11 12 13 14 15 16 17 18 19 20 21 22 23 24 25 26 27 28 29 30 31 32 33 34 35 36 37 38 39 40 41 42 43 44 45 46 47 48 49 50
695 ASUS41 KOKX 282108 RWROKX REGIONAL WEATHER ROUNDUP NATIONAL WEATHER SERVICE NEW YORK NY 500 PM EDT FRI APR 28 2017 NOTE: "FAIR" INDICATES FEW OR NO CLOUDS BELOW 12,000 FEET WITH NO SIGNIFICANT WEATHER AND/OR OBSTRUCTIONS TO VISIBILITY. NYZ071-072-176-178-NJZ106-104-282200- NEW YORK CITY METRO AREA CITY SKY/WX TMP DP RH WIND PRES REMARKS Central Park SUNNY 81 55 40 VRB6 30.00S Wall St Helipt CLEAR 84 53 34 W3 29.99S Bronx Bot Gard N/A 79 55 44 E3 30.00S LaGuardia APRT MOSUNNY 81 56 42 S17 29.96F Kennedy INTL MOSUNNY 74 61 63 S16 29.99F Breezy Point NOT AVBL Newark/Liberty MOSUNNY 85 41 21 SW17 29.97F Teterboro SUNNY 85 45 24 W13G20 29.95S $$ NYZ177-179-078>081-282200- LONG ISLAND NEW YORK CITY SKY/WX TMP DP RH WIND PRES REMARKS Jones Beach N/A 64 N/A N/A SW10G17 N/A Matinecock PT N/A 79 N/A N/A SW13G18 N/A Farmingdale SUNNY 74 61 63 SW10 30.00S MacArthur/ISP MOSUNNY 75 59 57 SW14 29.99S Shirley SUNNY 73 61 65 S9 30.01 Mt Sinai Harb N/A 66 N/A N/A CALM N/A Westhampton SUNNY 72 59 63 SW7 30.01S East Hampton N/A 74 62 65 S7 29.99S Montauk N/A 63 55 75 VRB5 30.01R $$ NYZ052-065-067-282200- HUDSON VALLEY CITY SKY/WX TMP DP RH WIND PRES REMARKS White Plains SUNNY 83 45 26 SW12G20 29.96F Larchmont Harb N/A 70 N/A N/A S21 N/A Croton O-T Hud N/A 82 N/A N/A S10 N/A Newburgh MOSUNNY 84 46 26 W9G18 29.96F Montgomery SUNNY 85 43 22 SW13 29.93S Poughkeepsie SUNNY 84 42 22 SW9 29.91F Albany MOSUNNY 79 51 37 N12 29.96S $$ NJZ001-105-106-008-010-013-015-019>022-104-282200- NEW JERSEY CITY SKY/WX TMP DP RH WIND PRES REMARKS Newark/Liberty MOSUNNY 85 41 21 SW17 29.97F Teterboro SUNNY 85 45 24 W13G20 29.95S Caldwell SUNNY 84 42 22 SW10G17 29.97S Somerville MOSUNNY 83 44 25 VRB6 29.96F Linden N/A 83 42 22 W7G21 29.97F Perth Amboy N/A 82 N/A N/A W14 N/A Sussex MOSUNNY 83 47 28 VRB7G20 29.97S Andover N/A 80 43 26 SW8 29.98F Trenton SUNNY 82 42 24 SW14 29.99S Millville SUNNY 84 57 39 W10 30.02R Atlantic City SUNNY 86 50 28 W14 30.01R Wrightstown SUNNY 83 51 32 W10 29.97S Toms River MOSUNNY 86 52 30 NW12 30.00S Belmar SUNNY 84 48 28 W13 30.00F $$ PAZ047>061-062-071-282200- EASTERN PENNSYLVANIA CITY SKY/WX TMP DP RH WIND PRES REMARKS Philadelphia PTSUNNY 83 52 34 W8 30.00F Allentown PTSUNNY 81 47 30 SW12 29.99F Scranton MOSUNNY 77 43 29 SW13 30.01R $$ CTZ002-004>006-009-010-012-RIZ004-006-007-MAZ004-011-015-282200- SOUTHERN NEW ENGLAND IN CT CITY SKY/WX TMP DP RH WIND PRES REMARKS Bradley INTL PTSUNNY 85 49 28 SW6 29.93F Hartford SUNNY 81 60 48 S12G18 29.93S Danbury MOSUNNY 80 56 43 S8 29.97S Wtrbury/Oxford MOSUNNY 79 59 50 S8 29.98F Bridgeport SUNNY 76 61 59 S7 29.97S Meriden SUNNY 81 59 47 S12 29.95F New Haven MOSUNNY 70 59 68 SE5 29.97S Chester N/A 77 55 47 S12G18 29.99R Groton SUNNY 63 58 83 S8 29.97S Wilimantic MOSUNNY 84 55 36 SW9 29.94F IN RI CITY SKY/WX TMP DP RH WIND PRES REMARKS Providence MOSUNNY 73 61 65 SE5 29.94F Block Island MOSUNNY 59 54 83 SW15 30.00R Westerly SUNNY 71 60 68 W7 29.98S IN MA CITY SKY/WX TMP DP RH WIND PRES REMARKS Boston MOSUNNY 81 61 50 SW9 29.91F Worcester SUNNY 78 49 35 SW14 29.95F Westfield MOSUNNY 83 52 34 NW8G18 29.93S Provincetown SUNNY 67 59 75 SW16 29.94R Nantucket SUNNY 54 49 83 SW13 30.00R $$ ANZ330-335-338-340-345-350-353-355-282200- COASTAL MARINE OBSERVATIONS STATION/POSITION TIME SKY/WX TEMP WIND PRES VSBY WAVE AIR SEA DIR/SP/G HT/PER (UTC) (F) (DEG/KT/KT) (MB) (MI) (FT/S) NY HARB ENTRANCE 1950 57 51 200/ 8/ 10 1016.3 4/ 9 20 S FIRE ISLAND 2050 55 50 220/ 8/ 10 1015.9 5/ 8 GREAT SOUTH BAY 2030 61 60 230/ 6/ 8 N/A 23 SSW MONTAUK P 1950 51 49 1016.4 5/ 8 15 E BARNEGAT LI 2030 53 N/A 4/ 8 HUDSON CANYON 1950 51 49 220/ 8/ 10 1017.1 5/ 8 KINGS POINT 2048 69 52 210/ 16/ 18 1014.8 EXECUTION ROCKS NOT AVBL CENTRAL LI SOUND 2045 59 240/ 4/ 6 N/A 0 EASTERN LI SOUND NOT AVBL ROBBINS REEF 2048 76 210/ 4/ 6 1015.3 $$ >>>>>>>>>>>>>>>>>>>>>>>>>>>> KEY <<<<<<<<<<<<<<<<<<<<<<<<<<< > < > SKY/WX - Sky Condition/Present Weather < > TMP - Temperature in Fahrenheit < > DP - Dew Point in Fahrenheit < > RH - Relative Humidity in Percent < > WIND - Direction (from) and Speed in MPH < > PRES - Mean Sea Level Pressure (inches of Hg) < > WCI - Wind Chill Index < > VSB - VISIBILITY IN MILES < > HX - HEAT INDEX < > TC - TEMPERATURE IN CELSIUS < > VRB - VARIABLE WIND DIRECTION < > < >>>>>>>>>>>>>>>>>>>>>>>>>>>> KEY <<<<<<<<<<<<<<<<<<<<<<<<<<<

USA.gov is the U.S. government's official web portal to all federal, state and local government web resources and services.